Change the Weather History Date:

Wednesday, March 5, 2014

  Actual Average (KEKA) Record (KEKA)
Temperature  
Mean Temperature 57 °F 49 °F  
Max Temperature 59 °F 57 °F 75 °F (1901)
Min Temperature 55 °F 42 °F 31 °F (1955)
Degree Days  
Heating Degree Days 8 16  
Month to date heating degree days 80  
Since 1 July heating degree days 3002  
Cooling Degree Days 0 0  
Month to date cooling degree days 0  
Year to date cooling degree days 0  
Growing Degree Days 7 (Base 50)    
Moisture  
Dew Point 53 °F    
Average Humidity 85    
Maximum Humidity 100    
Minimum Humidity 77    
Precipitation  
Precipitation 0.17 in 0.19 in 1.39 in (2011)
Month to date precipitation 0.98  
Year to date precipitation 13.11  
Since 1 July precipitation 30.16  
Snow  
Snow 0.00 in 0.00 in - ()
Month to date snowfall 0.0  
Since 1 July snowfall 0.2  
Snow Depth -    
Sea Level Pressure  
Sea Level Pressure 29.92 in    
Wind  
Wind Speed 17 mph (SE)    
Max Wind Speed 30 mph    
Max Gust Speed 40 mph    
Visibility 9 miles    
Events      
T = Trace of Precipitation, MM = Missing Value Source: NWS Daily Summary

Daily Weather History Graph

Daily Weather History Graph

Search for Another Location

Airport or City:

Trip Planner

Search our weather history database for the weather conditions in past years. The results will help you decide how hot, cold, wet, or windy it might be!

Date:

Astronomy

Mar. 05, 2014 Rise Set
Actual Time 6:43 AM PST 6:12 PM PST
Civil Twilight 6:16 AM PST 6:39 PM PST
Nautical Twilight 5:45 AM PST 7:11 PM PST
Astronomical Twilight 5:13 AM PST 7:43 PM PST
Moon 9:12 AM PST (3/5) 11:28 PM PST (3/5)
Length of Visible Light 12h 23m
Length of Day
11h 28m
Waxing Crescent, 24% of the Moon is Illuminated
Mar 5
Waxing Crescent
Mar 8
First Quarter
Mar 16
Full
Mar 23
Last Quarter
Mar 30
New

Hourly Weather History & Observations

Time (PST) Temp. Dew Point Humidity Pressure Visibility Wind Dir Wind Speed Gust Speed Precip Events Conditions
12:10 AM 55.4 °F 53.6 °F 94% 30.03 in 2.5 mi SSE 4.6 mph - 0.01 in   Overcast
12:30 AM 55.4 °F 55.4 °F 100% 30.02 in 7.0 mi ESE 10.4 mph - 0.02 in   Overcast
12:50 AM 55.4 °F 55.4 °F 100% 30.01 in 10.0 mi ESE 15.0 mph - 0.03 in   Mostly Cloudy
1:10 AM 55.4 °F 53.6 °F 94% 29.97 in 10.0 mi ESE 21.9 mph 27.6 mph N/A   Overcast
1:30 AM 57.2 °F 53.6 °F 88% 29.96 in 10.0 mi ESE 21.9 mph 32.2 mph N/A   Overcast
1:50 AM 57.2 °F 53.6 °F 88% 29.97 in 10.0 mi ESE 21.9 mph 28.8 mph N/A   Overcast
2:10 AM 57.2 °F 53.6 °F 88% 29.98 in 10.0 mi ESE 18.4 mph - N/A   Overcast
2:30 AM 57.2 °F 53.6 °F 88% 29.96 in 10.0 mi ESE 20.7 mph - N/A   Overcast
2:50 AM 57.2 °F 53.6 °F 88% 29.98 in 10.0 mi ESE 19.6 mph - N/A   Overcast
3:10 AM 57.2 °F 53.6 °F 88% 29.97 in 10.0 mi ESE 21.9 mph 25.3 mph N/A   Overcast
3:30 AM 57.2 °F 51.8 °F 82% 29.96 in 10.0 mi ESE 19.6 mph 25.3 mph N/A   Overcast
3:50 AM 57.2 °F 51.8 °F 82% 29.95 in 10.0 mi ESE 23.0 mph 29.9 mph N/A   Overcast
4:10 AM 57.2 °F 50.0 °F 77% 29.96 in 10.0 mi SE 20.7 mph 27.6 mph N/A   Overcast
4:30 AM 57.2 °F 51.8 °F 82% 29.96 in 10.0 mi ESE 24.2 mph 29.9 mph N/A   Overcast
4:50 AM 59.0 °F 51.8 °F 77% 29.95 in 10.0 mi ESE 23.0 mph - N/A   Overcast
5:10 AM 57.2 °F 51.8 °F 82% 29.95 in 8.0 mi ESE 23.0 mph 32.2 mph N/A   Overcast
5:30 AM 57.2 °F 50.0 °F 77% 29.95 in 10.0 mi ESE 24.2 mph 31.1 mph N/A   Overcast
5:50 AM 57.2 °F 51.8 °F 82% 29.95 in 10.0 mi ESE 18.4 mph 26.5 mph 0.01 in   Overcast
6:10 AM 57.2 °F 51.8 °F 82% 29.94 in 10.0 mi ESE 20.7 mph 25.3 mph N/A   Overcast
6:30 AM 57.2 °F 51.8 °F 82% 29.94 in 10.0 mi SE 15.0 mph - N/A   Overcast
6:50 AM 57.2 °F 51.8 °F 82% 29.94 in 10.0 mi SE 20.7 mph 24.2 mph N/A   Overcast
7:10 AM 57.2 °F 51.8 °F 82% 29.94 in 9.0 mi SE 21.9 mph 28.8 mph N/A   Overcast
7:30 AM 57.2 °F 51.8 °F 82% 29.94 in 10.0 mi SE 24.2 mph - N/A   Overcast
7:50 AM 57.2 °F 51.8 °F 82% 29.94 in 10.0 mi SE 24.2 mph 28.8 mph N/A   Overcast
8:10 AM 57.2 °F 51.8 °F 82% 29.94 in 10.0 mi SE 24.2 mph 31.1 mph N/A   Mostly Cloudy
8:30 AM 57.2 °F 51.8 °F 82% 29.95 in 10.0 mi SE 26.5 mph 32.2 mph N/A   Mostly Cloudy
8:50 AM 57.2 °F 51.8 °F 82% 29.96 in 10.0 mi SE 25.3 mph 31.1 mph N/A   Mostly Cloudy
9:10 AM 57.2 °F 51.8 °F 82% 29.96 in 10.0 mi SE 26.5 mph 31.1 mph N/A   Overcast
9:30 AM 57.2 °F 53.6 °F 88% 29.95 in 10.0 mi SE 24.2 mph 31.1 mph N/A   Mostly Cloudy
9:50 AM 57.2 °F 53.6 °F 88% 29.95 in 10.0 mi ESE 24.2 mph 33.4 mph N/A   Overcast
10:10 AM 57.2 °F 53.6 °F 88% 29.93 in 10.0 mi SE 27.6 mph 34.5 mph N/A   Scattered Clouds
10:30 AM 59.0 °F 53.6 °F 82% 29.93 in 10.0 mi SE 24.2 mph 34.5 mph N/A   Scattered Clouds
10:50 AM 59.0 °F 53.6 °F 82% 29.92 in 10.0 mi ESE 25.3 mph 33.4 mph N/A   Partly Cloudy
11:10 AM 59.0 °F 53.6 °F 82% 29.92 in 10.0 mi SE 24.2 mph 33.4 mph N/A   Partly Cloudy
11:30 AM 59.0 °F 53.6 °F 82% 29.91 in 10.0 mi SE 27.6 mph 36.8 mph N/A   Scattered Clouds
11:50 AM 59.0 °F 53.6 °F 82% 29.89 in 10.0 mi SE 23.0 mph 36.8 mph N/A   Mostly Cloudy
12:10 PM 59.0 °F 53.6 °F 82% 29.89 in 10.0 mi SE 28.8 mph 35.7 mph N/A   Mostly Cloudy
12:30 PM 59.0 °F 53.6 °F 82% 29.87 in 9.0 mi ESE 28.8 mph 34.5 mph N/A   Scattered Clouds
12:50 PM 57.2 °F 53.6 °F 88% 29.86 in 9.0 mi ESE 29.9 mph 40.3 mph N/A   Mostly Cloudy
1:10 PM 57.2 °F 53.6 °F 88% 29.86 in 10.0 mi ESE 26.5 mph 33.4 mph N/A   Overcast
1:30 PM 57.2 °F 55.4 °F 94% 29.85 in 7.0 mi ESE 23.0 mph 31.1 mph N/A   Overcast
1:50 PM 59.0 °F 55.4 °F 88% 29.83 in 9.0 mi ESE 26.5 mph 32.2 mph N/A   Overcast
2:10 PM 59.0 °F 55.4 °F 88% 29.82 in 10.0 mi ESE 24.2 mph 29.9 mph N/A   Overcast
2:30 PM 59.0 °F 55.4 °F 88% 29.83 in 5.0 mi SE 18.4 mph 24.2 mph N/A   Overcast
2:50 PM 59.0 °F 55.4 °F 88% 29.84 in 5.0 mi SE 13.8 mph - 0.01 in   Overcast
3:10 PM 57.2 °F 55.4 °F 94% 29.84 in 2.0 mi ESE 12.7 mph 20.7 mph 0.04 in   Mostly Cloudy
3:30 PM 59.0 °F 55.4 °F 88% 29.84 in 4.0 mi SE 12.7 mph 21.9 mph 0.06 in   Mostly Cloudy
3:50 PM 59.0 °F 57.2 °F 94% 29.84 in 3.0 mi SE 11.5 mph - 0.07 in   Mostly Cloudy
4:10 PM 59.0 °F 57.2 °F 94% 29.83 in 3.0 mi SE 11.5 mph - N/A   Scattered Clouds
4:30 PM 59.0 °F 55.4 °F 88% 29.84 in 2.5 mi SSE 9.2 mph 18.4 mph 0.03 in   Scattered Clouds
4:50 PM 59.0 °F 55.4 °F 88% 29.85 in 2.0 mi South 9.2 mph 17.3 mph 0.05 in   Mostly Cloudy
5:10 PM 59.0 °F 55.4 °F 88% 29.85 in 2.5 mi SSE 9.2 mph - 0.01 in   Mostly Cloudy
5:30 PM 57.2 °F 55.4 °F 94% 29.86 in 3.0 mi South 9.2 mph - 0.02 in   Mostly Cloudy
5:50 PM 57.2 °F 55.4 °F 94% 29.86 in 3.0 mi SSE 8.1 mph - 0.02 in   Overcast
6:10 PM 59.0 °F 55.4 °F 88% 29.87 in 9.0 mi SSE 9.2 mph 17.3 mph 0.01 in   Overcast
6:30 PM 57.2 °F 53.6 °F 88% 29.88 in 10.0 mi SSW 8.1 mph - 0.01 in   Overcast
6:50 PM 59.0 °F 51.8 °F 77% 29.89 in 10.0 mi South 6.9 mph - 0.01 in   Overcast
7:10 PM 57.2 °F 53.6 °F 88% 29.89 in 8.0 mi South 5.8 mph - N/A   Overcast
7:30 PM 57.2 °F 53.6 °F 88% 29.90 in 10.0 mi SE 6.9 mph - N/A   Mostly Cloudy
7:50 PM 57.2 °F 51.8 °F 82% 29.91 in 9.0 mi South 5.8 mph - N/A   Overcast
8:10 PM 57.2 °F 50.0 °F 77% 29.91 in 10.0 mi SSE 8.1 mph - N/A   Overcast
8:30 PM 57.2 °F 51.8 °F 82% 29.92 in 10.0 mi ESE 4.6 mph - N/A   Overcast
8:50 PM 57.2 °F 51.8 °F 82% 29.92 in 10.0 mi SE 6.9 mph - N/A   Overcast
9:10 PM 57.2 °F 50.0 °F 77% 29.93 in 10.0 mi South 4.6 mph - N/A   Overcast
9:30 PM 55.4 °F 50.0 °F 82% 29.94 in 10.0 mi SE 8.1 mph - N/A   Overcast
9:50 PM 55.4 °F 50.0 °F 82% 29.94 in 10.0 mi SE 9.2 mph - N/A   Overcast
10:10 PM 55.4 °F 51.8 °F 88% 29.95 in 10.0 mi SSE 9.2 mph - N/A   Mostly Cloudy
10:30 PM 57.2 °F 50.0 °F 77% 29.96 in 10.0 mi SSE 8.1 mph - N/A   Mostly Cloudy
10:50 PM 55.4 °F 51.8 °F 88% 29.97 in 10.0 mi SSE 5.8 mph - N/A   Overcast
11:10 PM 55.4 °F 50.0 °F 82% 29.98 in 10.0 mi ESE 6.9 mph - N/A   Mostly Cloudy
11:30 PM 55.4 °F 50.0 °F 82% 29.99 in 10.0 mi ESE 5.8 mph - N/A   Overcast
11:50 PM 55.4 °F 48.2 °F 77% 29.99 in 10.0 mi SE 3.5 mph - N/A   Overcast